www.pogodaiklimat.ru

Погода и климат >> Архив погоды >> Россия >> Хакасия >> Коммунар


ПОГОДА в Коммунаре

  • Прогноз погоды в Коммунаре
  • Монитор погоды в Коммунаре

АРХИВ ПОГОДЫ в Коммунаре

Время (UTC), дата Ветер
(напр.,м/с)
 
Видим.   Явления Облачность Т
(С)
Тd
(С)
f
(%)
Тe
(С)
Тes
(С)
Комфортность P
(гПа)
Po
(гПа)
Тmin
(С)
Tmax
(С)
R
(мм)
R24
(мм)
S
(см)
18 14.05 штиль 0 н/о 8/3 600 м
[Sc Ac trans Ci fib]
-2.1 -6.2 73 -3 -3 1012.7 911.3
21 14.05 штиль 0 н/о слаб. ливневой снег 10/6 600 м
[Cb cap Ac und]
-2.5 -5.1 82 -4 -4 1010.7 909.4
00 15.05 штиль 0 50 км слаб. ливневой снег 10/8 600 м
[Cb cap Ac und]
-2.4 -3.6 91 -4 -4 1010.0 908.8 -3.1 0.3 <0.5
03 15.05 С 2 50 км в посл. час ливневой снег 9/8 600 м
[Cb cap Ci fib]
+0.9 -4.0 70 -2 -1 1009.7 909.7
06 15.05 С 3
{10}
2000 м слаб. ливневой снег 9/9 600 м
[Cb cap]
+2.6 -4.4 60 -1 0 1010.8 911.3
09 15.05 С 2 50 км в посл. час ливневой снег 8/4 600 м
[Cb cap Ci ing]
+2.7 -4.2 60 0 +5 1012.5 912.7
12 15.05 Ю 2 50 км {ливн. осадки} 8/3 600 м
[Cb cap Ci fib]
+2.0 -6.0 55 -1 +1 1014.5 914.4 +3.7 0.3
15 15.05 Ю 1 н/о {ливн. осадки} 4/3 600 м
[Sc Ci fib]
-1.0 -4.9 75 -3 -3 1018.5 916.9
18 15.05 штиль 0 н/о {ливн. осадки} 9/3 600 м
[Sc Ac trans]
-1.4 -5.1 76 -2 -2 1019.9 918.1
21 15.05 ЮЗ 1 н/о 3/3 600 м
[Sc]
-2.0 -5.2 79 -4 -4 1020.4 918.3
00 16.05 штиль 0 50 км слаб. ливневой снег 8/8 600 м
[Cb cap]
-0.5 -3.9 78 -2 -1 1021.2 919.5 -2.0 0.0 0
03 16.05 СЗ 2 50 км слаб. ливневой снег 9/8 600 м
[Cb cap Ac trans Ci fib]
+2.9 -4.3 59 0 +2 1020.1 919.7
06 16.05 СЗ 3 10 км слаб. ливневой снег 9/6 600 м
[Cb cap Ac trans Ci fib]
+2.4 -2.9 68 -1 +2 1020.7 920.1
09 16.05 СЗ 4-10
{12}
10 км слаб. ливневой дождь 9/8 600 м
[Cb cap Ac trans Ci fib]
+4.7 -4.4 52 +1 +2 1019.8 920.0
12 16.05 СЗ 3
{10}
4000 м слаб. крупа 9/9 600 м
[Cb cap]
+0.7 -1.0 88 -4 -4 1022.7 921.4 +6.9 1
15 16.05 З 2 н/о {ливн. осадки} 8/4 600 м
[Cb cap Ac trans Ci fib]
-0.8 -2.0 92 -5 -5 1023.9 921.9
18 16.05 ЮЗ 1 н/о {ливн. осадки} 8/0
[Ac trans Ci fib]
-1.9 -2.8 94 -4 -4 1024.3 921.9
21 16.05 З 1 н/о 4/0
[Ac trans Ci fib]
-3.0 -4.0 93 -5 -5 1024.2 921.4
00 17.05 штиль 0 50 км 9/0
[Ac trans]
-2.0 -4.1 86 -3 -2 1024.5 922.0 -3.4 0.7 <0.5
03 17.05 З 1 50 км слаб. крупа 9/9 600 м
[Cb cap]
+2.2 -3.8 64 +1 +2 1023.3 922.4
06 17.05 СВ 1 50 км в посл. час ливневой снег 8/8 600 м
[Cb cap]
+4.0 -4.3 55 +3 +7 1022.3 922.1
09 17.05 З 2 50 км {ливн. осадки} 6/6 600 м
[Cb cap]
+7.6 -8.3 31 +6 +10 1020.5 921.6
12 17.05 Ю 2 50 км {ливн. осадки} 8/3 600 м
[Cu med, cong Ci fib]
+4.6 -7.6 41 +3 +4 1022.5 922.4 +7.9 0.0
15 17.05 ЮЗ 1 н/о 6/3 600 м
[Sc Ci fib]
+1.2 -6.7 56 0 0 1025.1 923.6
18 17.05 штиль 0 н/о 4/4 600 м
[Sc]
+1.0 -4.6 66 0 0 1025.7 924.1
21 17.05 штиль 0 н/о 3/3 600 м
[Sc]
-1.6 -4.0 84 -3 -3 1026.3 923.7
00 18.05 штиль 0 50 км 9/0
[Ac As Ci fib]
-0.6 -3.7 80 -2 -1 1025.9 923.7 -1.9 0
03 18.05 С 3 50 км 8/0
[Cs]
+6.6 -3.9 47 +4 +11 1022.0 922.7
06 18.05 ЮЗ 3 50 км 9/1 600 м
[Cu hum Ac cast Cs]
+8.4 -11.1 24 +7 +13 1019.2 920.7
09 18.05 З 3 50 км 10/0
[Ac lent Cs]
+10.0 -7.5 28 +9 +15 1017.0 919.3
12 18.05 З 1 50 км 8/0
[Ac lent Cc]
+8.5 -4.0 41 +8 +10 1016.5 918.4 +10.6
15 18.05 Ю 1 н/о 9/0
[Cs]
+5.3 -4.3 50 +5 +5 1016.6 917.4
18 18.05 штиль 0 н/о 8/0
[Ac trans Cc]
+2.4 -5.8 55 +2 +2 1016.9 916.6
21 18.05 Ю 1 н/о 9/0
[Ac trans Ci fib]
+2.5 -5.7 55 +1 +1 1015.4 915.4
00 19.05 штиль 0 50 км 3/0
[Ci fib]
+4.0 -2.2 64 +3 +6 1014.5 915.1 +1.6 0
03 19.05 СВ 2 50 км 8/0
[Cc]
+14.0 -3.1 30 +14 +22 1009.4 913.7
06 19.05 Ю 4-10
{12}
50 км 4/0
[Ac lent Ci sp]
+19.5 -7.3 16 +19 +27 1006.5 912.7
09 19.05 ЮВ 5-12
{14}
50 км 6/0
[Ac lent Ci sp]
+19.9 -6.2 17 +19 +23 1005.5 911.9
12 19.05 ЮЗ 6-14
{14}
50 км 8/4 600 м
[Sc Ac trans Ci fib]
+17.0 -4.3 23 +16 +16 1007.4 912.8 +20.3
15 19.05 ЮЗ 3
{12}
н/о 4/0
[Ci fib]
+10.2 -3.1 39 +9 +9 1009.3 912.4
18 19.05 ЮЗ 1 н/о 6/0
[Ci fib]
+8.3 -2.8 45 +8 +8 1010.2 912.6
21 19.05 СЗ 1 н/о 8/3 600 м
[Sc Ac trans Ci fib]
+9.7 +2.1 59 +10 +10 1009.0 912.1
00 20.05 З 1 4000 м ливневой дождь 10/8 600 м
[Cb cap Ac und]
+9.0 +8.4 96 +8 +8 1009.8 912.6 +6.8 1 0
03 20.05 З 1 50 км слаб. ливневой дождь 8/8 600 м
[Cb cap]
+10.6 +7.9 83 +10 +13 1009.2 912.7
06 20.05 С 4-10
{12}
50 км {ливн. осадки} 9/9 600 м
[Cb cap]
+13.0 +7.0 67 +11 +12 1008.4 912.6
09 20.05 З 3
{10}
50 км 8/8 600 м
[Cb cap]
+13.4 +6.8 64 +12 +14 1008.2 912.6
12 20.05 ЮЗ 2 4000 м гроза, ливневой дождь 10/10 600 м
[Cb cap]
+12.0 +5.9 66 +11 +11 1009.7 913.5 +13.7 2
15 20.05 штиль 0 н/о {гроза, ливн. осадки} 4/3 600 м
[Sc Ci fib]
+5.5 +4.8 95 +4 +4 1010.7 912.3
18 20.05 штиль 0 н/о {гроза, ливн. осадки} 8/4 600 м
[Sc Ci fib]
+4.6 +3.9 95 +3 +3 1007.7 909.3
21 20.05 штиль 0 н/о ливневой дождь 10/10 600 м
[Cb cap]
+7.1 +6.4 95 +6 +6 1005.4 908.1
00 21.05 штиль 0 4000 м ливневой дождь 9/8 600 м
[Cb cap Ac trans]
+7.0 +6.3 95 +6 +6 1001.0 904.1 +4.2 15 0
03 21.05 З 2
{14}
4000 м ливневой дождь 9/8 600 м
[Cb cap Ci fib]
+10.0 +8.8 92 +8 +10 1000.0 904.2
06 21.05 З 2 10 км слаб. ливневой дождь 10/10 600 м
[Cb cap]
+10.2 +8.8 91 +9 +9 1001.2 905.4
09 21.05 ЮЗ 3 50 км в посл. час ливневой дождь 10/5 600 м
[Cb cap Ac und]
+10.5 +7.6 82 +8 +10 1002.0 906.1
12 21.05 Ю 2 50 км слаб. ливневой дождь 10/5 600 м
[Cb cap Ac und]
+8.8 +6.0 83 +7 +7 1003.7 907.1 +11.3 7
15 21.05 З 2 50 км {ливн. осадки} 4/3 600 м
[Sc Ac trans]
+5.6 +4.7 94 +3 +3 1005.6 907.6

 

Местоположение метеостанции Коммунар (Хакасия, Россия): широта 54.33 долгота 89.28 высота над уровнем моря 847 м.

В архиве по умолчанию представлена погода в Коммунаре за последнюю неделю. Архивные данные за месяц целиком и за предыдущие месяцы, начиная с января 2011 года, Вы можете получить, выбрав интересующий диапазон дат из раскрывающегося списка и нажав кнопку "Ввод!".


*Определитесь, кто Вы:
робот инопланетянин человек

Внимание! Время в таблицах - всемирное. Для получения местного времени необходимо прибавить поправку, которая равна 7 ч.

Смотрите также архив погоды в соседних городах и на ближайших метеорологических станциях:

Погода в Шире (Хакасия, Россия) (46 км)
Погода в Ненастной (Хакасия, Россия) (55 км)
Погода в Копьево-2 (Хакасия, Россия) (86 км)
Погода в Уйбате (Хакасия, Россия) (98 км)
Погода в Междуреченске (Кемеровская область, Россия) (106 км)
Погода в Первомайском (Хакасия, Россия) (107 км)
Погода в Ужуре (Красноярский край, Россия) (113 км)
Погода в Неожиданном (Хакасия, Россия) (118 км)
Погода в Светлолобово (Красноярский край, Россия) (131 км)
Погода в Шарыпово (Красноярский край, Россия) (134 км)

Пояснения к столбцам:

Ветер - указаны скорость ветра в м/с - средняя за 10 мин, порывы в срок и между сроками (в фигурных скобках) и направление, откуда дует ветер: С - северный, СВ - северо-восточный, В - восточный, ЮВ - юго-восточный, Ю - южный, ЮЗ - юго-западный, З - западный, СЗ - северо-западный.
Видимость - горизонтальная дальность видимости в метрах или километрах. При видимости от 1 до 10 км при отсутствии осадков обычно наблюдается дымка, при ухудшении видимости до 1 км и менее - туман. В сухую погоду видимость может ухудшаться дымом, пылью или мглою.
Явления - указаны атмосферные явления, наблюдавшиеся в срок или в последний час перед сроком; фигурными скобками обозначены явления, наблюдавшиеся между сроками (за 1-3 часа до срока); квадратными скобками обозначены град или гололедные отложения с указанием их диаметра в мм.
Облачность - указаны через наклонную черту общая и нижняя облачность в баллах и высота нижней границы облаков в метрах; квадратными скобками обозначены формы облаков: Ci - перистые, Cs - перисто-слоистые, Cc - перисто-кучевые, Ac - высококучевые, As - высокослоистые, Sc - слоисто-кучевые, Ns - слоисто-дождевые, Cu - кучевые, Cb - кучево-дождевые. Подробнее классификацию облаков см. в Атласе облаков (PDF).
T - Температура воздуха - температура, измеренная на высоте 2 м над землей.
Td - Температура точки росы - температура, при понижении до которой содержащийся в воздухе водяной пар достигнет насыщения.
f - Относительная влажность воздуха - влажноcть воздуха, измеренная на высоте 2 м над землей.
Te - Эффективная температура - температура, которую ощущает одетый по сезону человек в тени. Характеристика душности погоды. При расчете учитывается влияние влажности воздуха и скорости ветра на теплоощущения человека.
Tes - Эффективная температура на солнце - температура, которую ощущает человек, с поправкой на солнечный нагрев. Характеристика знойности погоды. Зависит от высоты солнца над горизонтом, облачности и скорости ветра. Ночью, в пасмурную погоду, а также при ветре 12 м/с и более поправка равна нулю.
P - Атмосферное давление - приведенное к уровню моря атмосферное давление.
Po - Атмосферное давление - измеренное на уровне метеостанции атмосферное давление.
Tmin - Минимальная температура - минимум температуры воздуха на высоте 2 м над землей.
Tmax - Максимальная температура - максимум температуры воздуха на высоте 2 м над землей.
R - Количество осадков - Количество выпавших осадков за период времени, мм. При наведении курсора мыши на число - период времени, за который выпало указанное количество осадков.
R24 - Количество осадков - Количество выпавших осадков за 24 часа, мм.
S - Снежный покров - Высота снежного покрова, см. При наведении курсора мыши на число - состояние снежного покрова и степень покрытия местности в баллах.